Change the Weather History Date:

Saturday, October 20, 2012

  Actual Average (KBKV) Record (KBKV)
Temperature  
Mean Temperature 66 °F -  
Max Temperature 78 °F 81 °F 91 °F (2005)
Min Temperature 53 °F 57 °F 35 °F (1996)
Cooling Degree Days 2    
Growing Degree Days 16 (Base 50)    
Moisture  
Dew Point 54 °F    
Average Humidity 65    
Maximum Humidity 100    
Minimum Humidity 30    
Precipitation  
Precipitation 0.00 in - - ()
Sea Level Pressure  
Sea Level Pressure 29.93 in    
Wind  
Wind Speed 2 mph (NW)    
Max Wind Speed 12 mph    
Max Gust Speed 20 mph    
Visibility 10 miles    
Events      
Averages and records for this station are not official NWS values.
T = Trace of Precipitation, MM = Missing Value Source: NWS Daily Summary

Daily Weather History Graph

Daily Weather History Graph

Search for Another Location

Airport or City:

Trip Planner

Search our weather history database for the weather conditions in past years. The results will help you decide how hot, cold, wet, or windy it might be!

Date:

Astronomy

Oct. 20, 2012 Rise Set
Actual Time 7:34 AM EDT 6:54 PM EDT
Civil Twilight 7:10 AM EDT 7:18 PM EDT
Nautical Twilight 6:43 AM EDT 7:46 PM EDT
Astronomical Twilight 6:15 AM EDT 8:13 PM EDT
Moon 12:56 PM EDT (10/20) 11:51 PM EDT (10/20)
Length of Visible Light 12h 08m
Length of Day
11h 20m
Waxing Crescent, 34% of the Moon is Illuminated
Oct 20
Waxing Crescent
Oct 21
First Quarter
Oct 29
Full
Nov 6
Last Quarter
Nov 13
New

Hourly Weather History & Observations

Time (EDT) Temp. Dew Point Humidity Pressure Visibility Wind Dir Wind Speed Gust Speed Precip Events Conditions
12:15 AM 68.0 °F 68.0 °F 100% 29.89 in 10.0 mi Calm Calm - N/A   Scattered Clouds
12:35 AM 68.0 °F 68.0 °F 100% 29.89 in 10.0 mi Calm Calm - N/A   Scattered Clouds
12:55 AM 68.0 °F 68.0 °F 100% 29.89 in 10.0 mi Calm Calm - N/A   Mostly Cloudy
1:15 AM 68.0 °F 68.0 °F 100% 29.89 in 10.0 mi Calm Calm - N/A   Overcast
1:35 AM 68.0 °F 68.0 °F 100% 29.88 in 10.0 mi Calm Calm - N/A   Overcast
1:55 AM 68.0 °F 68.0 °F 100% 29.89 in 10.0 mi Calm Calm - N/A   Mostly Cloudy
2:15 AM 68.0 °F 68.0 °F 100% 29.89 in 10.0 mi Calm Calm - N/A   Mostly Cloudy
2:35 AM 68.0 °F 68.0 °F 100% 29.88 in 10.0 mi Calm Calm - N/A   Mostly Cloudy
2:55 AM 68.0 °F 68.0 °F 100% 29.88 in 10.0 mi Calm Calm - N/A   Scattered Clouds
3:15 AM 68.0 °F 66.2 °F 94% 29.88 in 10.0 mi Calm Calm - N/A   Mostly Cloudy
3:35 AM 68.0 °F 64.4 °F 88% 29.88 in 10.0 mi Calm Calm - N/A   Mostly Cloudy
3:55 AM 68.0 °F 62.6 °F 83% 29.88 in 10.0 mi NNW 3.5 mph - N/A   Scattered Clouds
4:15 AM 68.0 °F 59.0 °F 73% 29.88 in 10.0 mi NNW 5.8 mph - N/A   Clear
4:35 AM 66.2 °F 55.4 °F 68% 29.88 in 10.0 mi NNW 4.6 mph - N/A   Scattered Clouds
4:55 AM 64.4 °F 55.4 °F 73% 29.89 in 10.0 mi North 3.5 mph - N/A   Scattered Clouds
5:15 AM 64.4 °F 55.4 °F 73% 29.89 in 10.0 mi NNW 4.6 mph - N/A   Clear
5:35 AM 64.4 °F 53.6 °F 68% 29.90 in 10.0 mi NNW 3.5 mph - N/A   Clear
5:55 AM 64.4 °F 53.6 °F 68% 29.91 in 10.0 mi Calm Calm - N/A   Clear
6:15 AM 62.6 °F 53.6 °F 72% 29.91 in 10.0 mi Calm Calm - N/A   Clear
6:35 AM 60.8 °F 53.6 °F 77% 29.92 in 10.0 mi Calm Calm - N/A   Clear
6:55 AM 59.0 °F 53.6 °F 82% 29.92 in 10.0 mi Calm Calm - N/A   Clear
7:15 AM 55.4 °F 53.6 °F 94% 29.93 in 10.0 mi Calm Calm - N/A   Scattered Clouds
7:35 AM 55.4 °F 53.6 °F 94% 29.93 in 10.0 mi Calm Calm - N/A   Clear
7:55 AM 57.2 °F 55.4 °F 94% 29.93 in 10.0 mi Calm Calm - N/A   Clear
8:15 AM 59.0 °F 55.4 °F 88% 29.93 in 10.0 mi Calm Calm - N/A   Clear
8:35 AM 62.6 °F 55.4 °F 77% 29.94 in 10.0 mi Calm Calm - N/A   Clear
8:55 AM 64.4 °F 53.6 °F 68% 29.95 in 10.0 mi Calm Calm - N/A   Clear
9:15 AM 68.0 °F 53.6 °F 60% 29.96 in 10.0 mi North 3.5 mph - N/A   Clear
9:35 AM 69.8 °F 53.6 °F 56% 29.96 in 10.0 mi North 3.5 mph - N/A   Clear
9:55 AM 69.8 °F 51.8 °F 53% 29.97 in 10.0 mi North 3.5 mph - N/A   Clear
10:15 AM 71.6 °F 51.8 °F 50% 29.98 in 10.0 mi North 5.8 mph - N/A   Clear
10:35 AM 73.4 °F 50.0 °F 44% 29.98 in 10.0 mi NNW 5.8 mph - N/A   Clear
10:55 AM 75.2 °F 48.2 °F 38% 29.97 in 10.0 mi North 4.6 mph - N/A   Clear
11:15 AM 77.0 °F 46.4 °F 34% 29.97 in 10.0 mi NNW 6.9 mph - N/A   Clear
11:35 AM 77.0 °F 46.4 °F 34% 29.97 in 10.0 mi North 5.8 mph - N/A   Clear
11:55 AM 77.0 °F 46.4 °F 34% 29.97 in 10.0 mi North 8.1 mph - N/A   Clear
12:15 PM 78.8 °F 46.4 °F 32% 29.96 in 10.0 mi NNW 10.4 mph - N/A   Clear
12:35 PM 77.0 °F 48.2 °F 36% 29.96 in 10.0 mi WNW 3.5 mph - N/A   Clear
12:55 PM 78.8 °F 48.2 °F 34% 29.95 in 10.0 mi NNW 9.2 mph - N/A   Clear
1:15 PM 78.8 °F 46.4 °F 32% 29.95 in 10.0 mi NW 4.6 mph - N/A   Clear
1:35 PM 78.8 °F 46.4 °F 32% 29.94 in 10.0 mi NW 3.5 mph - N/A   Clear
1:55 PM 78.8 °F 44.6 °F 30% 29.93 in 10.0 mi WNW 4.6 mph - N/A   Clear
2:15 PM 78.8 °F 46.4 °F 32% 29.92 in 10.0 mi West 9.2 mph - N/A   Clear
2:35 PM 78.8 °F 46.4 °F 32% 29.92 in 10.0 mi West 11.5 mph 16.1 mph N/A   Clear
2:55 PM 78.8 °F 46.4 °F 32% 29.92 in 10.0 mi West 10.4 mph 19.6 mph N/A   Clear
3:15 PM 78.8 °F 46.4 °F 32% 29.91 in 10.0 mi WNW 9.2 mph 16.1 mph N/A   Clear
3:35 PM 78.8 °F 46.4 °F 32% 29.91 in 10.0 mi West 11.5 mph 17.3 mph N/A   Clear
3:55 PM 78.8 °F 50.0 °F 36% 29.91 in 10.0 mi West 10.4 mph 17.3 mph N/A   Clear
4:15 PM 77.0 °F 50.0 °F 39% 29.90 in 10.0 mi West 9.2 mph 18.4 mph N/A   Clear
4:35 PM 77.0 °F 50.0 °F 39% 29.90 in 10.0 mi WNW 8.1 mph - N/A   Clear
4:55 PM 77.0 °F 50.0 °F 39% 29.90 in 10.0 mi WNW 6.9 mph 19.6 mph N/A   Clear
5:15 PM 77.0 °F 50.0 °F 39% 29.90 in 10.0 mi WNW 9.2 mph 17.3 mph N/A   Clear
5:35 PM 75.2 °F 50.0 °F 41% 29.90 in 10.0 mi West 11.5 mph 17.3 mph N/A   Clear
5:55 PM 73.4 °F 50.0 °F 44% 29.91 in 10.0 mi West 6.9 mph 17.3 mph N/A   Clear
6:15 PM 73.4 °F 50.0 °F 44% 29.91 in 10.0 mi WNW 6.9 mph - N/A   Clear
6:35 PM 71.6 °F 50.0 °F 46% 29.92 in 10.0 mi West 5.8 mph - N/A   Clear
6:55 PM 69.8 °F 51.8 °F 53% 29.91 in 10.0 mi West 4.6 mph - N/A   Clear
7:15 PM 69.8 °F 51.8 °F 53% 29.92 in 10.0 mi Calm Calm - N/A   Clear
7:35 PM 68.0 °F 51.8 °F 56% 29.92 in 10.0 mi Calm Calm - N/A   Clear
7:55 PM 62.6 °F 51.8 °F 68% 29.92 in 10.0 mi Calm Calm - N/A   Clear
8:15 PM 60.8 °F 51.8 °F 72% 29.93 in 10.0 mi Calm Calm - N/A   Clear
8:35 PM 60.8 °F 51.8 °F 72% 29.94 in 10.0 mi Calm Calm - N/A   Clear
8:55 PM 59.0 °F 51.8 °F 77% 29.94 in 10.0 mi Calm Calm - N/A   Clear
9:15 PM 59.0 °F 51.8 °F 77% 29.95 in 10.0 mi Calm Calm - N/A   Clear
9:35 PM 59.0 °F 53.6 °F 82% 29.96 in 10.0 mi Calm Calm - N/A   Clear
9:55 PM 57.2 °F 53.6 °F 88% 29.97 in 10.0 mi Calm Calm - N/A   Clear
10:15 PM 57.2 °F 53.6 °F 88% 29.97 in 10.0 mi Calm Calm - N/A   Clear
10:35 PM 55.4 °F 51.8 °F 88% 29.98 in 10.0 mi Calm Calm - N/A   Clear
10:55 PM 55.4 °F 53.6 °F 94% 29.99 in 10.0 mi Calm Calm - N/A   Clear
11:15 PM 55.4 °F 51.8 °F 88% 29.99 in 10.0 mi Calm Calm - N/A   Clear
11:35 PM 55.4 °F 51.8 °F 88% 29.99 in 10.0 mi Calm Calm - N/A   Clear
11:55 PM 53.6 °F 51.8 °F 94% 29.99 in 10.0 mi Calm Calm - N/A   Clear